This demonstration page uses our WeatherBlox Daily Observations layout. Learn more.

41.55636, -103.73856

Hourly Observations for December 29, 2019

Temp ( °F °C ) Dew Point ( °F °C ) Humidity (%) Winds ( mph kmh ) Pressure ( in mb ) Visibility ( mi km ) Precip ( " mm )
12:59 am 00:59 Mostly Cloudy with Scattered Snow Showers 22 -5.6 19 -7 90 90 NNW 25 41 29.97 1015 4 6.43736 0 0
3:58 am 03:58 Mostly Cloudy with Scattered Snow Showers 22 -5.5 19 -7 89 89 NNW 28 44 29.94 1014 5 8.0467 0 0
4:58 am 04:58 Windy with Snow Likely 22 -5.8 19 -7.4 89 89 NNW 29 46 29.96 1014 6 9.65604 0 0
5:58 am 05:58 Windy with Snow Likely 22 -5.8 19 -7.4 89 89 NNW 24 39 29.95 1014 6 9.65604 0 0
6:58 am 06:58 Mostly Cloudy with Scattered Snow Showers 22 -5.8 18 -7.6 87 87 NW 20 31 29.95 1014 10 16.0934 0 0
7:58 am 07:58 Mostly Cloudy with Scattered Snow Showers 21 -5.9 18 -7.6 88 88 NW 22 35 29.93 1014 8 12.87472 0 0
8:58 am 08:58 Windy with Snow Likely 22 -5.8 17 -8.3 83 83 NW 24 39 29.95 1014 10 16.0934 0 0
9:58 am 09:58 Mostly Cloudy with Scattered Snow Showers 21 -6.3 17 -8.2 87 87 NW 31 50 29.93 1014 2.5 4.02335 0 0
10:58 am 10:58 Windy with Snow Likely 20 -6.4 18 -7.9 89 89 NW 26 43 29.95 1014 4 6.43736 0 0
11:58 am 11:58 Mostly Cloudy with Scattered Snow Showers 21 -6.3 18 -7.7 90 90 NW 26 43 29.95 1014 6 9.65604 0 0
12:58 pm 12:58 Windy with Snow Likely 21 -6.2 18 -7.8 89 89 NW 28 44 29.96 1015 2.75 4.425685 0 0
1:58 pm 13:58 Windy with Snow Likely 21 -6.1 19 -7.4 91 91 NW 25 41 29.98 1015 2.75 4.425685 0 0
2:58 pm 14:58 Windy with Snow Likely 21 -6 19 -7.5 89 89 NW 24 39 29.98 1015 2.5 4.02335 0 0
3:58 pm 15:58 Windy with Snow Likely 22 -5.7 19 -7.1 90 90 NW 28 44 29.99 1016 1.75 2.816345 0 0
4:58 pm 16:58 Mostly Cloudy with Scattered Snow Showers 22 -5.4 20 -6.9 89 89 NW 29 46 30 1016 3 4.82802 0 0
5:58 pm 17:58 Mostly Cloudy with Scattered Snow Showers 23 -4.9 20 -6.8 87 87 NW 32 52 29.99 1016 5 8.0467 0 0
6:58 pm 18:58 Mostly Cloudy with Scattered Snow Showers 24 -4.6 20 -6.8 85 85 NW 36 57 29.98 1015 5 8.0467 0 0
7:58 pm 19:58 Windy with Snow Showers Likely 24 -4.5 19 -7 83 83 NW 35 56 29.98 1015 7 11.26538 0 0
8:58 pm 20:58 Windy with Snow Showers Likely 24 -4.4 19 -7.2 81 81 NW 35 56 29.97 1015 2.75 4.425685 0 0
9:59 pm 21:59 Mostly Cloudy 25 -4.1 18 -7.6 77 77 NW 29 46 30 1016 10 16.0934 0 0
10:58 pm 22:58 Partly Cloudy 23 -4.8 17 -8.4 76 76 NW 24 39 30.03 1017 10 16.0934 0 0
11:58 pm 23:58 Cloudy 22 -5.6 15 -9.4 75 75 NW 22 35 30.05 1018 10 16.0934 0 0

Powered by AerisWeather